Погода в Юшале

Россия / Свердловская область     57°04′47″N   64°15′21″E
темп.,
°C
ветер,
м/с
пор.,
м/с
влажн.,
%
обл.,
%
осадки,
мм/ч
давл.,
гПа
погр.,
м
11 мая, вт
вт1123:00+12ююз11425 0.0 102610
02:00+10юз114977 0.0 102610
05:00+9зюз115298 0.0 102710
08:00+16юз123413 0.0 1027282
11:00+21з2224100 0.0 10271687
14:00+23з2220100 0.0 10261975
17:00+22з3422100 0.0 10261818
20:00+18зюз22345 0.0 102636
12 мая, ср
ср1223:00+13зюз24425 0.0 102747
02:00+12зюз38456 0.0 1026129
05:00+11зсз255196 0.0 1027101
08:00+16с2459100 0.0 1027359
11:00+21ссз354817 0.0 10271616
14:00+23ссз4534100 0.0 10262113
17:00+23ссз4534100 0.0 10262105
20:00+19с244797 0.0 102684
13 мая, чт
чт1323:00+15с005792 0.0 102611
02:00+14зюз25615 0.0 102680
05:00+12з25675 0.0 102686
08:00+19сз47485 0.0 1026498
11:00+23сз57365 0.0 10251833
14:00+26ссз57311 0.0 10242270
17:00+26ссз463116 0.0 10242502
20:00+22всв26495 0.0 1024141
14 мая, пт
пт1423:00+17в226753 0.0 102617
02:00+15вюв227619 0.0 102612
05:00+14ю12805 0.0 102714
08:00+21ююз245340 0.0 1026459
11:00+26юз343694 0.0 10251608
14:00+28з46259 0.0 10232627
17:00+29з46225 0.0 10223114
20:00+24зюз22365 0.0 102138
15 мая, сб
сб1523:00+22зюз274380 0.0 1021144
02:00+19з38505 0.0 1021148
05:00+16зсз257250 0.8 102283
08:00+22з36475 0.0 1022363
11:00+28з462912 0.0 10211599
14:00+30з582238 0.0 10193082
17:00+30зсз692272 0.0 10183407
20:00+26з4103281 0.0 1017443